<?xml version="1.0" encoding="UTF-8" standalone="no" ?>
<gpx xmlns="http://www.topografix.com/GPX/1/1" xmlns:xsi="http://www.w3.org/2001/XMLSchema-instance" xsi:schemaLocation="http://www.topografix.com/GPX/1/1 http://www.topografix.com/GPX/1/1/gpx.xsd" version="1.1" creator="VisuGPX - https://www.visugpx.com">
  <metadata>
    <name>6-4 AM Finiels à N106</name>
  </metadata>
  <trk>
    <name><![CDATA[10824242-6-4 Finiels à La Rochette]]></name>
    <trkseg>
      <trkpt lat="44.40398" lon="3.74589">
        <ele>1232</ele>
        <time>2020-01-04T18:43:52Z</time>
      </trkpt>
      <trkpt lat="44.40413" lon="3.74536">
        <ele>1236</ele>
        <time>2020-01-04T18:44:02Z</time>
      </trkpt>
      <trkpt lat="44.40421" lon="3.7448">
        <ele>1240</ele>
        <time>2020-01-04T18:44:11Z</time>
      </trkpt>
      <trkpt lat="44.40421" lon="3.74462">
        <ele>1242</ele>
        <time>2020-01-04T18:44:14Z</time>
      </trkpt>
      <trkpt lat="44.40408" lon="3.7443">
        <ele>1242</ele>
        <time>2020-01-04T18:44:20Z</time>
      </trkpt>
      <trkpt lat="44.40408" lon="3.74421">
        <ele>1243</ele>
        <time>2020-01-04T18:44:22Z</time>
      </trkpt>
      <trkpt lat="44.40413" lon="3.74415">
        <ele>1244</ele>
        <time>2020-01-04T18:44:23Z</time>
      </trkpt>
      <trkpt lat="44.4042" lon="3.74418">
        <ele>1245</ele>
        <time>2020-01-04T18:44:25Z</time>
      </trkpt>
      <trkpt lat="44.40423" lon="3.74422">
        <ele>1245</ele>
        <time>2020-01-04T18:44:26Z</time>
      </trkpt>
      <trkpt lat="44.40438" lon="3.74468">
        <ele>1245</ele>
        <time>2020-01-04T18:44:35Z</time>
      </trkpt>
      <trkpt lat="44.40452" lon="3.74499">
        <ele>1245</ele>
        <time>2020-01-04T18:44:41Z</time>
      </trkpt>
      <trkpt lat="44.40464" lon="3.74513">
        <ele>1247</ele>
        <time>2020-01-04T18:44:44Z</time>
      </trkpt>
      <trkpt lat="44.40491" lon="3.74532">
        <ele>1251</ele>
        <time>2020-01-04T18:44:51Z</time>
      </trkpt>
      <trkpt lat="44.4052" lon="3.74547">
        <ele>1255</ele>
        <time>2020-01-04T18:44:59Z</time>
      </trkpt>
      <trkpt lat="44.40538" lon="3.74548">
        <ele>1257</ele>
        <time>2020-01-04T18:45:03Z</time>
      </trkpt>
      <trkpt lat="44.40555" lon="3.74545">
        <ele>1260</ele>
        <time>2020-01-04T18:45:07Z</time>
      </trkpt>
      <trkpt lat="44.40589" lon="3.74523">
        <ele>1266</ele>
        <time>2020-01-04T18:45:16Z</time>
      </trkpt>
      <trkpt lat="44.40599" lon="3.74524">
        <ele>1267</ele>
        <time>2020-01-04T18:45:18Z</time>
      </trkpt>
      <trkpt lat="44.40607" lon="3.74531">
        <ele>1268</ele>
        <time>2020-01-04T18:45:20Z</time>
      </trkpt>
      <trkpt lat="44.40611" lon="3.74551">
        <ele>1268</ele>
        <time>2020-01-04T18:45:24Z</time>
      </trkpt>
      <trkpt lat="44.4061" lon="3.74559">
        <ele>1268</ele>
        <time>2020-01-04T18:45:25Z</time>
      </trkpt>
      <trkpt lat="44.40586" lon="3.74618">
        <ele>1266</ele>
        <time>2020-01-04T18:45:36Z</time>
      </trkpt>
      <trkpt lat="44.40578" lon="3.74648">
        <ele>1267</ele>
        <time>2020-01-04T18:45:42Z</time>
      </trkpt>
      <trkpt lat="44.4057" lon="3.74689">
        <ele>1268</ele>
        <time>2020-01-04T18:45:49Z</time>
      </trkpt>
      <trkpt lat="44.40567" lon="3.74718">
        <ele>1269</ele>
        <time>2020-01-04T18:45:54Z</time>
      </trkpt>
      <trkpt lat="44.40568" lon="3.74732">
        <ele>1270</ele>
        <time>2020-01-04T18:45:56Z</time>
      </trkpt>
      <trkpt lat="44.40574" lon="3.74758">
        <ele>1273</ele>
        <time>2020-01-04T18:46:01Z</time>
      </trkpt>
      <trkpt lat="44.40594" lon="3.74799">
        <ele>1279</ele>
        <time>2020-01-04T18:46:09Z</time>
      </trkpt>
      <trkpt lat="44.40604" lon="3.74856">
        <ele>1282</ele>
        <time>2020-01-04T18:46:19Z</time>
      </trkpt>
      <trkpt lat="44.4063" lon="3.74904">
        <ele>1288</ele>
        <time>2020-01-04T18:46:29Z</time>
      </trkpt>
      <trkpt lat="44.40643" lon="3.74957">
        <ele>1289</ele>
        <time>2020-01-04T18:46:38Z</time>
      </trkpt>
      <trkpt lat="44.40652" lon="3.7498">
        <ele>1290</ele>
        <time>2020-01-04T18:46:42Z</time>
      </trkpt>
      <trkpt lat="44.40672" lon="3.75006">
        <ele>1293</ele>
        <time>2020-01-04T18:46:49Z</time>
      </trkpt>
      <trkpt lat="44.40719" lon="3.75045">
        <ele>1299</ele>
        <time>2020-01-04T18:47:01Z</time>
      </trkpt>
      <trkpt lat="44.40749" lon="3.75057">
        <ele>1302</ele>
        <time>2020-01-04T18:47:09Z</time>
      </trkpt>
      <trkpt lat="44.40758" lon="3.75058">
        <ele>1303</ele>
        <time>2020-01-04T18:47:11Z</time>
      </trkpt>
      <trkpt lat="44.40813" lon="3.75051">
        <ele>1311</ele>
        <time>2020-01-04T18:47:24Z</time>
      </trkpt>
      <trkpt lat="44.4082" lon="3.75052">
        <ele>1312</ele>
        <time>2020-01-04T18:47:25Z</time>
      </trkpt>
      <trkpt lat="44.40867" lon="3.75073">
        <ele>1316</ele>
        <time>2020-01-04T18:47:37Z</time>
      </trkpt>
      <trkpt lat="44.40877" lon="3.75081">
        <ele>1316</ele>
        <time>2020-01-04T18:47:40Z</time>
      </trkpt>
      <trkpt lat="44.40881" lon="3.7509">
        <ele>1316</ele>
        <time>2020-01-04T18:47:41Z</time>
      </trkpt>
      <trkpt lat="44.40882" lon="3.75104">
        <ele>1317</ele>
        <time>2020-01-04T18:47:44Z</time>
      </trkpt>
      <trkpt lat="44.40852" lon="3.75254">
        <ele>1321</ele>
        <time>2020-01-04T18:48:10Z</time>
      </trkpt>
      <trkpt lat="44.40822" lon="3.7538">
        <ele>1328</ele>
        <time>2020-01-04T18:48:32Z</time>
      </trkpt>
      <trkpt lat="44.40819" lon="3.75399">
        <ele>1329</ele>
        <time>2020-01-04T18:48:35Z</time>
      </trkpt>
      <trkpt lat="44.40822" lon="3.75441">
        <ele>1334</ele>
        <time>2020-01-04T18:48:42Z</time>
      </trkpt>
      <trkpt lat="44.4082" lon="3.75464">
        <ele>1335</ele>
        <time>2020-01-04T18:48:46Z</time>
      </trkpt>
      <trkpt lat="44.40805" lon="3.75505">
        <ele>1337</ele>
        <time>2020-01-04T18:48:54Z</time>
      </trkpt>
      <trkpt lat="44.40775" lon="3.75608">
        <ele>1347</ele>
        <time>2020-01-04T18:49:12Z</time>
      </trkpt>
      <trkpt lat="44.40767" lon="3.75627">
        <ele>1349</ele>
        <time>2020-01-04T18:49:16Z</time>
      </trkpt>
      <trkpt lat="44.40755" lon="3.75637">
        <ele>1350</ele>
        <time>2020-01-04T18:49:19Z</time>
      </trkpt>
      <trkpt lat="44.40591" lon="3.7572">
        <ele>1363</ele>
        <time>2020-01-04T18:50:00Z</time>
      </trkpt>
      <trkpt lat="44.40569" lon="3.75734">
        <ele>1363</ele>
        <time>2020-01-04T18:50:06Z</time>
      </trkpt>
      <trkpt lat="44.40559" lon="3.75746">
        <ele>1364</ele>
        <time>2020-01-04T18:50:09Z</time>
      </trkpt>
      <trkpt lat="44.4051" lon="3.75813">
        <ele>1369</ele>
        <time>2020-01-04T18:50:25Z</time>
      </trkpt>
      <trkpt lat="44.40493" lon="3.75849">
        <ele>1372</ele>
        <time>2020-01-04T18:50:32Z</time>
      </trkpt>
      <trkpt lat="44.40487" lon="3.75865">
        <ele>1374</ele>
        <time>2020-01-04T18:50:35Z</time>
      </trkpt>
      <trkpt lat="44.4048" lon="3.75896">
        <ele>1378</ele>
        <time>2020-01-04T18:50:40Z</time>
      </trkpt>
      <trkpt lat="44.40474" lon="3.75957">
        <ele>1387</ele>
        <time>2020-01-04T18:50:51Z</time>
      </trkpt>
      <trkpt lat="44.40469" lon="3.75978">
        <ele>1390</ele>
        <time>2020-01-04T18:50:54Z</time>
      </trkpt>
      <trkpt lat="44.4046" lon="3.75993">
        <ele>1391</ele>
        <time>2020-01-04T18:50:58Z</time>
      </trkpt>
      <trkpt lat="44.40442" lon="3.76008">
        <ele>1390</ele>
        <time>2020-01-04T18:51:02Z</time>
      </trkpt>
      <trkpt lat="44.40396" lon="3.76018">
        <ele>1387</ele>
        <time>2020-01-04T18:51:13Z</time>
      </trkpt>
      <trkpt lat="44.40386" lon="3.76025">
        <ele>1388</ele>
        <time>2020-01-04T18:51:16Z</time>
      </trkpt>
      <trkpt lat="44.40369" lon="3.76045">
        <ele>1390</ele>
        <time>2020-01-04T18:51:21Z</time>
      </trkpt>
      <trkpt lat="44.40318" lon="3.7615">
        <ele>1401</ele>
        <time>2020-01-04T18:51:42Z</time>
      </trkpt>
      <trkpt lat="44.40313" lon="3.76167">
        <ele>1403</ele>
        <time>2020-01-04T18:51:45Z</time>
      </trkpt>
      <trkpt lat="44.40314" lon="3.76183">
        <ele>1403</ele>
        <time>2020-01-04T18:51:48Z</time>
      </trkpt>
      <trkpt lat="44.40325" lon="3.76216">
        <ele>1405</ele>
        <time>2020-01-04T18:51:54Z</time>
      </trkpt>
      <trkpt lat="44.40336" lon="3.76238">
        <ele>1406</ele>
        <time>2020-01-04T18:51:59Z</time>
      </trkpt>
      <trkpt lat="44.40385" lon="3.76292">
        <ele>1411</ele>
        <time>2020-01-04T18:52:13Z</time>
      </trkpt>
      <trkpt lat="44.40401" lon="3.76305">
        <ele>1413</ele>
        <time>2020-01-04T18:52:17Z</time>
      </trkpt>
      <trkpt lat="44.40427" lon="3.76313">
        <ele>1414</ele>
        <time>2020-01-04T18:52:24Z</time>
      </trkpt>
      <trkpt lat="44.40447" lon="3.76314">
        <ele>1416</ele>
        <time>2020-01-04T18:52:28Z</time>
      </trkpt>
      <trkpt lat="44.40482" lon="3.76303">
        <ele>1419</ele>
        <time>2020-01-04T18:52:37Z</time>
      </trkpt>
      <trkpt lat="44.40498" lon="3.76303">
        <ele>1420</ele>
        <time>2020-01-04T18:52:40Z</time>
      </trkpt>
      <trkpt lat="44.40525" lon="3.76318">
        <ele>1422</ele>
        <time>2020-01-04T18:52:47Z</time>
      </trkpt>
      <trkpt lat="44.40538" lon="3.76322">
        <ele>1423</ele>
        <time>2020-01-04T18:52:50Z</time>
      </trkpt>
      <trkpt lat="44.40612" lon="3.76329">
        <ele>1434</ele>
        <time>2020-01-04T18:53:08Z</time>
      </trkpt>
      <trkpt lat="44.40633" lon="3.76345">
        <ele>1438</ele>
        <time>2020-01-04T18:53:13Z</time>
      </trkpt>
      <trkpt lat="44.40645" lon="3.76366">
        <ele>1441</ele>
        <time>2020-01-04T18:53:18Z</time>
      </trkpt>
      <trkpt lat="44.40646" lon="3.76392">
        <ele>1441</ele>
        <time>2020-01-04T18:53:22Z</time>
      </trkpt>
      <trkpt lat="44.40591" lon="3.76527">
        <ele>1436</ele>
        <time>2020-01-04T18:53:48Z</time>
      </trkpt>
      <trkpt lat="44.40587" lon="3.76554">
        <ele>1437</ele>
        <time>2020-01-04T18:53:53Z</time>
      </trkpt>
      <trkpt lat="44.40593" lon="3.76576">
        <ele>1439</ele>
        <time>2020-01-04T18:53:57Z</time>
      </trkpt>
      <trkpt lat="44.40604" lon="3.76588">
        <ele>1441</ele>
        <time>2020-01-04T18:54:00Z</time>
      </trkpt>
      <trkpt lat="44.40612" lon="3.76591">
        <ele>1441</ele>
        <time>2020-01-04T18:54:02Z</time>
      </trkpt>
      <trkpt lat="44.40674" lon="3.76598">
        <ele>1446</ele>
        <time>2020-01-04T18:54:16Z</time>
      </trkpt>
      <trkpt lat="44.4071" lon="3.76606">
        <ele>1451</ele>
        <time>2020-01-04T18:54:25Z</time>
      </trkpt>
      <trkpt lat="44.40753" lon="3.76634">
        <ele>1454</ele>
        <time>2020-01-04T18:54:36Z</time>
      </trkpt>
      <trkpt lat="44.40815" lon="3.76695">
        <ele>1459</ele>
        <time>2020-01-04T18:54:54Z</time>
      </trkpt>
      <trkpt lat="44.40824" lon="3.76707">
        <ele>1460</ele>
        <time>2020-01-04T18:54:56Z</time>
      </trkpt>
      <trkpt lat="44.40832" lon="3.76718">
        <ele>1460</ele>
        <time>2020-01-04T18:54:59Z</time>
      </trkpt>
      <trkpt lat="44.40847" lon="3.76754">
        <ele>1461</ele>
        <time>2020-01-04T18:55:06Z</time>
      </trkpt>
      <trkpt lat="44.40869" lon="3.76856">
        <ele>1464</ele>
        <time>2020-01-04T18:55:24Z</time>
      </trkpt>
      <trkpt lat="44.40878" lon="3.76915">
        <ele>1464</ele>
        <time>2020-01-04T18:55:34Z</time>
      </trkpt>
      <trkpt lat="44.40888" lon="3.76956">
        <ele>1464</ele>
        <time>2020-01-04T18:55:41Z</time>
      </trkpt>
      <trkpt lat="44.40894" lon="3.76971">
        <ele>1465</ele>
        <time>2020-01-04T18:55:44Z</time>
      </trkpt>
      <trkpt lat="44.40925" lon="3.77025">
        <ele>1469</ele>
        <time>2020-01-04T18:55:56Z</time>
      </trkpt>
      <trkpt lat="44.40966" lon="3.77084">
        <ele>1471</ele>
        <time>2020-01-04T18:56:09Z</time>
      </trkpt>
      <trkpt lat="44.40974" lon="3.77093">
        <ele>1472</ele>
        <time>2020-01-04T18:56:12Z</time>
      </trkpt>
      <trkpt lat="44.4099" lon="3.77105">
        <ele>1473</ele>
        <time>2020-01-04T18:56:16Z</time>
      </trkpt>
      <trkpt lat="44.41089" lon="3.77133">
        <ele>1482</ele>
        <time>2020-01-04T18:56:39Z</time>
      </trkpt>
      <trkpt lat="44.41124" lon="3.77135">
        <ele>1484</ele>
        <time>2020-01-04T18:56:48Z</time>
      </trkpt>
      <trkpt lat="44.41261" lon="3.77118">
        <ele>1496</ele>
        <time>2020-01-04T18:57:20Z</time>
      </trkpt>
      <trkpt lat="44.41288" lon="3.77125">
        <ele>1497</ele>
        <time>2020-01-04T18:57:26Z</time>
      </trkpt>
      <trkpt lat="44.41407" lon="3.77216">
        <ele>1505</ele>
        <time>2020-01-04T18:57:58Z</time>
      </trkpt>
      <trkpt lat="44.41422" lon="3.77244">
        <ele>1506</ele>
        <time>2020-01-04T18:58:04Z</time>
      </trkpt>
      <trkpt lat="44.41441" lon="3.77322">
        <ele>1505</ele>
        <time>2020-01-04T18:58:17Z</time>
      </trkpt>
      <trkpt lat="44.41445" lon="3.77331">
        <ele>1505</ele>
        <time>2020-01-04T18:58:19Z</time>
      </trkpt>
      <trkpt lat="44.41453" lon="3.77343">
        <ele>1506</ele>
        <time>2020-01-04T18:58:22Z</time>
      </trkpt>
      <trkpt lat="44.41467" lon="3.7735">
        <ele>1507</ele>
        <time>2020-01-04T18:58:25Z</time>
      </trkpt>
      <trkpt lat="44.41473" lon="3.7735">
        <ele>1507</ele>
        <time>2020-01-04T18:58:27Z</time>
      </trkpt>
      <trkpt lat="44.41485" lon="3.77335">
        <ele>1509</ele>
        <time>2020-01-04T18:58:31Z</time>
      </trkpt>
      <trkpt lat="44.41497" lon="3.77306">
        <ele>1511</ele>
        <time>2020-01-04T18:58:36Z</time>
      </trkpt>
      <trkpt lat="44.4155" lon="3.77214">
        <ele>1519</ele>
        <time>2020-01-04T18:58:56Z</time>
      </trkpt>
      <trkpt lat="44.41599" lon="3.77146">
        <ele>1527</ele>
        <time>2020-01-04T18:59:12Z</time>
      </trkpt>
      <trkpt lat="44.41629" lon="3.771">
        <ele>1532</ele>
        <time>2020-01-04T18:59:22Z</time>
      </trkpt>
      <trkpt lat="44.41645" lon="3.77054">
        <ele>1537</ele>
        <time>2020-01-04T18:59:31Z</time>
      </trkpt>
      <trkpt lat="44.41671" lon="3.77097">
        <ele>1534</ele>
        <time>2020-01-04T18:59:40Z</time>
      </trkpt>
      <trkpt lat="44.41677" lon="3.77128">
        <ele>1531</ele>
        <time>2020-01-04T18:59:46Z</time>
      </trkpt>
      <trkpt lat="44.4169" lon="3.77149">
        <ele>1528</ele>
        <time>2020-01-04T18:59:50Z</time>
      </trkpt>
      <trkpt lat="44.41712" lon="3.77166">
        <ele>1525</ele>
        <time>2020-01-04T18:59:56Z</time>
      </trkpt>
      <trkpt lat="44.41768" lon="3.77116">
        <ele>1531</ele>
        <time>2020-01-04T19:00:12Z</time>
      </trkpt>
      <trkpt lat="44.41792" lon="3.77105">
        <ele>1532</ele>
        <time>2020-01-04T19:00:18Z</time>
      </trkpt>
      <trkpt lat="44.41811" lon="3.77088">
        <ele>1534</ele>
        <time>2020-01-04T19:00:23Z</time>
      </trkpt>
      <trkpt lat="44.41819" lon="3.77088">
        <ele>1534</ele>
        <time>2020-01-04T19:00:25Z</time>
      </trkpt>
      <trkpt lat="44.41847" lon="3.77075">
        <ele>1535</ele>
        <time>2020-01-04T19:00:32Z</time>
      </trkpt>
      <trkpt lat="44.4187" lon="3.77054">
        <ele>1537</ele>
        <time>2020-01-04T19:00:38Z</time>
      </trkpt>
      <trkpt lat="44.41897" lon="3.77042">
        <ele>1538</ele>
        <time>2020-01-04T19:00:45Z</time>
      </trkpt>
      <trkpt lat="44.41911" lon="3.77025">
        <ele>1541</ele>
        <time>2020-01-04T19:00:49Z</time>
      </trkpt>
      <trkpt lat="44.41926" lon="3.77012">
        <ele>1542</ele>
        <time>2020-01-04T19:00:53Z</time>
      </trkpt>
      <trkpt lat="44.41931" lon="3.76999">
        <ele>1544</ele>
        <time>2020-01-04T19:00:56Z</time>
      </trkpt>
      <trkpt lat="44.41921" lon="3.76973">
        <ele>1549</ele>
        <time>2020-01-04T19:01:00Z</time>
      </trkpt>
      <trkpt lat="44.41891" lon="3.76966">
        <ele>1551</ele>
        <time>2020-01-04T19:01:08Z</time>
      </trkpt>
      <trkpt lat="44.41863" lon="3.76954">
        <ele>1554</ele>
        <time>2020-01-04T19:01:14Z</time>
      </trkpt>
      <trkpt lat="44.41811" lon="3.76971">
        <ele>1552</ele>
        <time>2020-01-04T19:01:27Z</time>
      </trkpt>
      <trkpt lat="44.41768" lon="3.76964">
        <ele>1553</ele>
        <time>2020-01-04T19:01:37Z</time>
      </trkpt>
      <trkpt lat="44.41736" lon="3.76931">
        <ele>1556</ele>
        <time>2020-01-04T19:01:46Z</time>
      </trkpt>
      <trkpt lat="44.41736" lon="3.7692">
        <ele>1557</ele>
        <time>2020-01-04T19:01:48Z</time>
      </trkpt>
      <trkpt lat="44.41726" lon="3.76918">
        <ele>1556</ele>
        <time>2020-01-04T19:01:50Z</time>
      </trkpt>
      <trkpt lat="44.41704" lon="3.76891">
        <ele>1555</ele>
        <time>2020-01-04T19:01:57Z</time>
      </trkpt>
      <trkpt lat="44.41681" lon="3.76852">
        <ele>1556</ele>
        <time>2020-01-04T19:02:06Z</time>
      </trkpt>
      <trkpt lat="44.4167" lon="3.76784">
        <ele>1559</ele>
        <time>2020-01-04T19:02:17Z</time>
      </trkpt>
      <trkpt lat="44.41657" lon="3.76753">
        <ele>1559</ele>
        <time>2020-01-04T19:02:23Z</time>
      </trkpt>
      <trkpt lat="44.41653" lon="3.76715">
        <ele>1561</ele>
        <time>2020-01-04T19:02:30Z</time>
      </trkpt>
      <trkpt lat="44.41663" lon="3.76672">
        <ele>1564</ele>
        <time>2020-01-04T19:02:37Z</time>
      </trkpt>
      <trkpt lat="44.417" lon="3.76666">
        <ele>1568</ele>
        <time>2020-01-04T19:02:46Z</time>
      </trkpt>
      <trkpt lat="44.41743" lon="3.76709">
        <ele>1571</ele>
        <time>2020-01-04T19:02:58Z</time>
      </trkpt>
      <trkpt lat="44.41753" lon="3.76742">
        <ele>1571</ele>
        <time>2020-01-04T19:03:04Z</time>
      </trkpt>
      <trkpt lat="44.41762" lon="3.76788">
        <ele>1569</ele>
        <time>2020-01-04T19:03:12Z</time>
      </trkpt>
      <trkpt lat="44.41773" lon="3.76815">
        <ele>1568</ele>
        <time>2020-01-04T19:03:17Z</time>
      </trkpt>
      <trkpt lat="44.41798" lon="3.76863">
        <ele>1565</ele>
        <time>2020-01-04T19:03:27Z</time>
      </trkpt>
      <trkpt lat="44.41837" lon="3.76894">
        <ele>1563</ele>
        <time>2020-01-04T19:03:38Z</time>
      </trkpt>
      <trkpt lat="44.41858" lon="3.76907">
        <ele>1561</ele>
        <time>2020-01-04T19:03:43Z</time>
      </trkpt>
      <trkpt lat="44.4193" lon="3.76897">
        <ele>1561</ele>
        <time>2020-01-04T19:04:00Z</time>
      </trkpt>
      <trkpt lat="44.4198" lon="3.76905">
        <ele>1558</ele>
        <time>2020-01-04T19:04:12Z</time>
      </trkpt>
      <trkpt lat="44.42019" lon="3.76894">
        <ele>1559</ele>
        <time>2020-01-04T19:04:21Z</time>
      </trkpt>
      <trkpt lat="44.42047" lon="3.76913">
        <ele>1554</ele>
        <time>2020-01-04T19:04:28Z</time>
      </trkpt>
      <trkpt lat="44.42093" lon="3.76909">
        <ele>1553</ele>
        <time>2020-01-04T19:04:39Z</time>
      </trkpt>
      <trkpt lat="44.42128" lon="3.76922">
        <ele>1551</ele>
        <time>2020-01-04T19:04:48Z</time>
      </trkpt>
      <trkpt lat="44.42178" lon="3.7692">
        <ele>1552</ele>
        <time>2020-01-04T19:04:59Z</time>
      </trkpt>
      <trkpt lat="44.42208" lon="3.76936">
        <ele>1550</ele>
        <time>2020-01-04T19:05:07Z</time>
      </trkpt>
      <trkpt lat="44.42233" lon="3.76945">
        <ele>1549</ele>
        <time>2020-01-04T19:05:13Z</time>
      </trkpt>
      <trkpt lat="44.42266" lon="3.7695">
        <ele>1548</ele>
        <time>2020-01-04T19:05:21Z</time>
      </trkpt>
      <trkpt lat="44.42298" lon="3.76936">
        <ele>1548</ele>
        <time>2020-01-04T19:05:28Z</time>
      </trkpt>
      <trkpt lat="44.4235" lon="3.769">
        <ele>1547</ele>
        <time>2020-01-04T19:05:42Z</time>
      </trkpt>
      <trkpt lat="44.42339" lon="3.76852">
        <ele>1550</ele>
        <time>2020-01-04T19:05:50Z</time>
      </trkpt>
      <trkpt lat="44.42375" lon="3.76839">
        <ele>1547</ele>
        <time>2020-01-04T19:05:59Z</time>
      </trkpt>
      <trkpt lat="44.42426" lon="3.76797">
        <ele>1544</ele>
        <time>2020-01-04T19:06:13Z</time>
      </trkpt>
      <trkpt lat="44.42435" lon="3.76809">
        <ele>1542</ele>
        <time>2020-01-04T19:06:16Z</time>
      </trkpt>
      <trkpt lat="44.42464" lon="3.76723">
        <ele>1542</ele>
        <time>2020-01-04T19:06:32Z</time>
      </trkpt>
      <trkpt lat="44.42473" lon="3.76678">
        <ele>1541</ele>
        <time>2020-01-04T19:06:39Z</time>
      </trkpt>
      <trkpt lat="44.42478" lon="3.76582">
        <ele>1542</ele>
        <time>2020-01-04T19:06:56Z</time>
      </trkpt>
      <trkpt lat="44.42483" lon="3.76564">
        <ele>1543</ele>
        <time>2020-01-04T19:06:59Z</time>
      </trkpt>
      <trkpt lat="44.42489" lon="3.76555">
        <ele>1543</ele>
        <time>2020-01-04T19:07:01Z</time>
      </trkpt>
      <trkpt lat="44.425" lon="3.76547">
        <ele>1542</ele>
        <time>2020-01-04T19:07:04Z</time>
      </trkpt>
      <trkpt lat="44.42511" lon="3.76522">
        <ele>1544</ele>
        <time>2020-01-04T19:07:09Z</time>
      </trkpt>
      <trkpt lat="44.42529" lon="3.76445">
        <ele>1548</ele>
        <time>2020-01-04T19:07:22Z</time>
      </trkpt>
      <trkpt lat="44.42543" lon="3.76409">
        <ele>1550</ele>
        <time>2020-01-04T19:07:29Z</time>
      </trkpt>
      <trkpt lat="44.42556" lon="3.76385">
        <ele>1551</ele>
        <time>2020-01-04T19:07:34Z</time>
      </trkpt>
      <trkpt lat="44.42564" lon="3.76354">
        <ele>1554</ele>
        <time>2020-01-04T19:07:39Z</time>
      </trkpt>
      <trkpt lat="44.42564" lon="3.76336">
        <ele>1557</ele>
        <time>2020-01-04T19:07:42Z</time>
      </trkpt>
      <trkpt lat="44.42557" lon="3.76312">
        <ele>1560</ele>
        <time>2020-01-04T19:07:47Z</time>
      </trkpt>
      <trkpt lat="44.42552" lon="3.7628">
        <ele>1564</ele>
        <time>2020-01-04T19:07:52Z</time>
      </trkpt>
      <trkpt lat="44.42538" lon="3.76242">
        <ele>1569</ele>
        <time>2020-01-04T19:07:59Z</time>
      </trkpt>
      <trkpt lat="44.42521" lon="3.76169">
        <ele>1578</ele>
        <time>2020-01-04T19:08:12Z</time>
      </trkpt>
      <trkpt lat="44.42516" lon="3.7613">
        <ele>1583</ele>
        <time>2020-01-04T19:08:19Z</time>
      </trkpt>
      <trkpt lat="44.42509" lon="3.76111">
        <ele>1586</ele>
        <time>2020-01-04T19:08:22Z</time>
      </trkpt>
      <trkpt lat="44.42508" lon="3.76104">
        <ele>1587</ele>
        <time>2020-01-04T19:08:24Z</time>
      </trkpt>
      <trkpt lat="44.42514" lon="3.76082">
        <ele>1589</ele>
        <time>2020-01-04T19:08:27Z</time>
      </trkpt>
      <trkpt lat="44.42524" lon="3.76061">
        <ele>1591</ele>
        <time>2020-01-04T19:08:32Z</time>
      </trkpt>
      <trkpt lat="44.42541" lon="3.76048">
        <ele>1592</ele>
        <time>2020-01-04T19:08:36Z</time>
      </trkpt>
      <trkpt lat="44.42558" lon="3.76029">
        <ele>1593</ele>
        <time>2020-01-04T19:08:41Z</time>
      </trkpt>
      <trkpt lat="44.42588" lon="3.76006">
        <ele>1595</ele>
        <time>2020-01-04T19:08:49Z</time>
      </trkpt>
      <trkpt lat="44.42613" lon="3.75981">
        <ele>1597</ele>
        <time>2020-01-04T19:08:56Z</time>
      </trkpt>
      <trkpt lat="44.42634" lon="3.75973">
        <ele>1598</ele>
        <time>2020-01-04T19:09:02Z</time>
      </trkpt>
      <trkpt lat="44.42656" lon="3.75971">
        <ele>1597</ele>
        <time>2020-01-04T19:09:07Z</time>
      </trkpt>
      <trkpt lat="44.42694" lon="3.75956">
        <ele>1598</ele>
        <time>2020-01-04T19:09:16Z</time>
      </trkpt>
      <trkpt lat="44.4272" lon="3.7595">
        <ele>1598</ele>
        <time>2020-01-04T19:09:22Z</time>
      </trkpt>
      <trkpt lat="44.42741" lon="3.75933">
        <ele>1600</ele>
        <time>2020-01-04T19:09:28Z</time>
      </trkpt>
      <trkpt lat="44.42761" lon="3.75903">
        <ele>1603</ele>
        <time>2020-01-04T19:09:35Z</time>
      </trkpt>
      <trkpt lat="44.42768" lon="3.7588">
        <ele>1605</ele>
        <time>2020-01-04T19:09:39Z</time>
      </trkpt>
      <trkpt lat="44.42785" lon="3.75841">
        <ele>1607</ele>
        <time>2020-01-04T19:09:46Z</time>
      </trkpt>
      <trkpt lat="44.42801" lon="3.75784">
        <ele>1609</ele>
        <time>2020-01-04T19:09:57Z</time>
      </trkpt>
      <trkpt lat="44.42806" lon="3.75743">
        <ele>1610</ele>
        <time>2020-01-04T19:10:03Z</time>
      </trkpt>
      <trkpt lat="44.42804" lon="3.75678">
        <ele>1614</ele>
        <time>2020-01-04T19:10:14Z</time>
      </trkpt>
      <trkpt lat="44.42773" lon="3.75578">
        <ele>1617</ele>
        <time>2020-01-04T19:10:33Z</time>
      </trkpt>
      <trkpt lat="44.42738" lon="3.75485">
        <ele>1621</ele>
        <time>2020-01-04T19:10:50Z</time>
      </trkpt>
      <trkpt lat="44.42726" lon="3.75439">
        <ele>1624</ele>
        <time>2020-01-04T19:10:58Z</time>
      </trkpt>
      <trkpt lat="44.42716" lon="3.75416">
        <ele>1625</ele>
        <time>2020-01-04T19:11:03Z</time>
      </trkpt>
      <trkpt lat="44.42695" lon="3.75347">
        <ele>1628</ele>
        <time>2020-01-04T19:11:15Z</time>
      </trkpt>
      <trkpt lat="44.42677" lon="3.75312">
        <ele>1630</ele>
        <time>2020-01-04T19:11:22Z</time>
      </trkpt>
      <trkpt lat="44.42652" lon="3.75284">
        <ele>1631</ele>
        <time>2020-01-04T19:11:30Z</time>
      </trkpt>
      <trkpt lat="44.42639" lon="3.75253">
        <ele>1631</ele>
        <time>2020-01-04T19:11:36Z</time>
      </trkpt>
      <trkpt lat="44.42631" lon="3.7524">
        <ele>1632</ele>
        <time>2020-01-04T19:11:39Z</time>
      </trkpt>
      <trkpt lat="44.42605" lon="3.75216">
        <ele>1634</ele>
        <time>2020-01-04T19:11:46Z</time>
      </trkpt>
      <trkpt lat="44.42616" lon="3.75211">
        <ele>1633</ele>
        <time>2020-01-04T19:11:49Z</time>
      </trkpt>
      <trkpt lat="44.42609" lon="3.75185">
        <ele>1634</ele>
        <time>2020-01-04T19:11:53Z</time>
      </trkpt>
      <trkpt lat="44.42578" lon="3.75176">
        <ele>1635</ele>
        <time>2020-01-04T19:12:01Z</time>
      </trkpt>
      <trkpt lat="44.42642" lon="3.75134">
        <ele>1634</ele>
        <time>2020-01-04T19:12:17Z</time>
      </trkpt>
      <trkpt lat="44.42642" lon="3.74966">
        <ele>1652</ele>
        <time>2020-01-04T19:12:45Z</time>
      </trkpt>
      <trkpt lat="44.42659" lon="3.74728">
        <ele>1672</ele>
        <time>2020-01-04T19:13:25Z</time>
      </trkpt>
      <trkpt lat="44.42669" lon="3.74642">
        <ele>1676</ele>
        <time>2020-01-04T19:13:40Z</time>
      </trkpt>
      <trkpt lat="44.4268" lon="3.74603">
        <ele>1679</ele>
        <time>2020-01-04T19:13:47Z</time>
      </trkpt>
      <trkpt lat="44.42694" lon="3.74565">
        <ele>1680</ele>
        <time>2020-01-04T19:13:54Z</time>
      </trkpt>
      <trkpt lat="44.42742" lon="3.74522">
        <ele>1681</ele>
        <time>2020-01-04T19:14:07Z</time>
      </trkpt>
      <trkpt lat="44.4272" lon="3.74474">
        <ele>1681</ele>
        <time>2020-01-04T19:14:17Z</time>
      </trkpt>
      <trkpt lat="44.42664" lon="3.74272">
        <ele>1677</ele>
        <time>2020-01-04T19:14:53Z</time>
      </trkpt>
      <trkpt lat="44.4261" lon="3.73917">
        <ele>1697</ele>
        <time>2020-01-04T19:15:53Z</time>
      </trkpt>
      <trkpt lat="44.42459" lon="3.73874">
        <ele>1690</ele>
        <time>2020-01-04T19:16:29Z</time>
      </trkpt>
      <trkpt lat="44.4227" lon="3.73889">
        <ele>1664</ele>
        <time>2020-01-04T19:17:14Z</time>
      </trkpt>
      <trkpt lat="44.42257" lon="3.74018">
        <ele>1662</ele>
        <time>2020-01-04T19:17:35Z</time>
      </trkpt>
      <trkpt lat="44.42225" lon="3.74084">
        <ele>1659</ele>
        <time>2020-01-04T19:17:49Z</time>
      </trkpt>
      <trkpt lat="44.42171" lon="3.74088">
        <ele>1652</ele>
        <time>2020-01-04T19:18:01Z</time>
      </trkpt>
      <trkpt lat="44.42033" lon="3.74131">
        <ele>1639</ele>
        <time>2020-01-04T19:18:34Z</time>
      </trkpt>
      <trkpt lat="44.41993" lon="3.74123">
        <ele>1631</ele>
        <time>2020-01-04T19:18:44Z</time>
      </trkpt>
      <trkpt lat="44.41925" lon="3.74147">
        <ele>1620</ele>
        <time>2020-01-04T19:19:00Z</time>
      </trkpt>
      <trkpt lat="44.41907" lon="3.74135">
        <ele>1615</ele>
        <time>2020-01-04T19:19:05Z</time>
      </trkpt>
      <trkpt lat="44.41802" lon="3.74182">
        <ele>1596</ele>
        <time>2020-01-04T19:19:30Z</time>
      </trkpt>
      <trkpt lat="44.41764" lon="3.74299">
        <ele>1590</ele>
        <time>2020-01-04T19:19:52Z</time>
      </trkpt>
      <trkpt lat="44.41723" lon="3.74346">
        <ele>1580</ele>
        <time>2020-01-04T19:20:04Z</time>
      </trkpt>
      <trkpt lat="44.41648" lon="3.74307">
        <ele>1565</ele>
        <time>2020-01-04T19:20:23Z</time>
      </trkpt>
      <trkpt lat="44.41616" lon="3.74248">
        <ele>1557</ele>
        <time>2020-01-04T19:20:35Z</time>
      </trkpt>
      <trkpt lat="44.41602" lon="3.74178">
        <ele>1548</ele>
        <time>2020-01-04T19:20:47Z</time>
      </trkpt>
      <trkpt lat="44.41564" lon="3.741">
        <ele>1532</ele>
        <time>2020-01-04T19:21:03Z</time>
      </trkpt>
      <trkpt lat="44.41543" lon="3.74049">
        <ele>1523</ele>
        <time>2020-01-04T19:21:13Z</time>
      </trkpt>
      <trkpt lat="44.4154" lon="3.73952">
        <ele>1512</ele>
        <time>2020-01-04T19:21:29Z</time>
      </trkpt>
      <trkpt lat="44.41524" lon="3.73846">
        <ele>1497</ele>
        <time>2020-01-04T19:21:47Z</time>
      </trkpt>
      <trkpt lat="44.41492" lon="3.73776">
        <ele>1484</ele>
        <time>2020-01-04T19:22:01Z</time>
      </trkpt>
      <trkpt lat="44.41515" lon="3.73693">
        <ele>1479</ele>
        <time>2020-01-04T19:22:16Z</time>
      </trkpt>
      <trkpt lat="44.41526" lon="3.73686">
        <ele>1481</ele>
        <time>2020-01-04T19:22:19Z</time>
      </trkpt>
      <trkpt lat="44.41533" lon="3.73675">
        <ele>1481</ele>
        <time>2020-01-04T19:22:21Z</time>
      </trkpt>
      <trkpt lat="44.41542" lon="3.73657">
        <ele>1482</ele>
        <time>2020-01-04T19:22:25Z</time>
      </trkpt>
      <trkpt lat="44.4155" lon="3.73628">
        <ele>1483</ele>
        <time>2020-01-04T19:22:30Z</time>
      </trkpt>
      <trkpt lat="44.41552" lon="3.73614">
        <ele>1483</ele>
        <time>2020-01-04T19:22:32Z</time>
      </trkpt>
      <trkpt lat="44.41551" lon="3.73569">
        <ele>1483</ele>
        <time>2020-01-04T19:22:40Z</time>
      </trkpt>
      <trkpt lat="44.41557" lon="3.73517">
        <ele>1485</ele>
        <time>2020-01-04T19:22:49Z</time>
      </trkpt>
      <trkpt lat="44.41566" lon="3.73454">
        <ele>1487</ele>
        <time>2020-01-04T19:22:59Z</time>
      </trkpt>
      <trkpt lat="44.41583" lon="3.73389">
        <ele>1490</ele>
        <time>2020-01-04T19:23:11Z</time>
      </trkpt>
      <trkpt lat="44.41595" lon="3.73359">
        <ele>1492</ele>
        <time>2020-01-04T19:23:17Z</time>
      </trkpt>
      <trkpt lat="44.4163" lon="3.7329">
        <ele>1496</ele>
        <time>2020-01-04T19:23:31Z</time>
      </trkpt>
      <trkpt lat="44.41652" lon="3.73255">
        <ele>1498</ele>
        <time>2020-01-04T19:23:39Z</time>
      </trkpt>
      <trkpt lat="44.41747" lon="3.73127">
        <ele>1508</ele>
        <time>2020-01-04T19:24:09Z</time>
      </trkpt>
      <trkpt lat="44.41821" lon="3.73043">
        <ele>1514</ele>
        <time>2020-01-04T19:24:32Z</time>
      </trkpt>
      <trkpt lat="44.41896" lon="3.72965">
        <ele>1522</ele>
        <time>2020-01-04T19:24:53Z</time>
      </trkpt>
      <trkpt lat="44.41929" lon="3.72939">
        <ele>1526</ele>
        <time>2020-01-04T19:25:02Z</time>
      </trkpt>
      <trkpt lat="44.41968" lon="3.72918">
        <ele>1531</ele>
        <time>2020-01-04T19:25:12Z</time>
      </trkpt>
      <trkpt lat="44.42133" lon="3.72815">
        <ele>1542</ele>
        <time>2020-01-04T19:25:54Z</time>
      </trkpt>
      <trkpt lat="44.42218" lon="3.72774">
        <ele>1551</ele>
        <time>2020-01-04T19:26:15Z</time>
      </trkpt>
      <trkpt lat="44.42253" lon="3.7276">
        <ele>1556</ele>
        <time>2020-01-04T19:26:24Z</time>
      </trkpt>
      <trkpt lat="44.42286" lon="3.72755">
        <ele>1561</ele>
        <time>2020-01-04T19:26:32Z</time>
      </trkpt>
      <trkpt lat="44.42313" lon="3.72744">
        <ele>1566</ele>
        <time>2020-01-04T19:26:38Z</time>
      </trkpt>
      <trkpt lat="44.42323" lon="3.72737">
        <ele>1568</ele>
        <time>2020-01-04T19:26:41Z</time>
      </trkpt>
      <trkpt lat="44.42324" lon="3.72728">
        <ele>1568</ele>
        <time>2020-01-04T19:26:42Z</time>
      </trkpt>
      <trkpt lat="44.42321" lon="3.7272">
        <ele>1568</ele>
        <time>2020-01-04T19:26:44Z</time>
      </trkpt>
      <trkpt lat="44.42308" lon="3.7271">
        <ele>1566</ele>
        <time>2020-01-04T19:26:47Z</time>
      </trkpt>
      <trkpt lat="44.42233" lon="3.72619">
        <ele>1562</ele>
        <time>2020-01-04T19:27:10Z</time>
      </trkpt>
      <trkpt lat="44.42172" lon="3.7256">
        <ele>1560</ele>
        <time>2020-01-04T19:27:28Z</time>
      </trkpt>
      <trkpt lat="44.42157" lon="3.72538">
        <ele>1559</ele>
        <time>2020-01-04T19:27:33Z</time>
      </trkpt>
      <trkpt lat="44.42147" lon="3.72508">
        <ele>1561</ele>
        <time>2020-01-04T19:27:38Z</time>
      </trkpt>
      <trkpt lat="44.42137" lon="3.7246">
        <ele>1562</ele>
        <time>2020-01-04T19:27:47Z</time>
      </trkpt>
      <trkpt lat="44.42089" lon="3.72173">
        <ele>1562</ele>
        <time>2020-01-04T19:28:36Z</time>
      </trkpt>
      <trkpt lat="44.42086" lon="3.72122">
        <ele>1560</ele>
        <time>2020-01-04T19:28:44Z</time>
      </trkpt>
      <trkpt lat="44.42088" lon="3.72086">
        <ele>1560</ele>
        <time>2020-01-04T19:28:50Z</time>
      </trkpt>
      <trkpt lat="44.42093" lon="3.72064">
        <ele>1559</ele>
        <time>2020-01-04T19:28:54Z</time>
      </trkpt>
      <trkpt lat="44.42099" lon="3.7205">
        <ele>1559</ele>
        <time>2020-01-04T19:28:57Z</time>
      </trkpt>
      <trkpt lat="44.42121" lon="3.7202">
        <ele>1558</ele>
        <time>2020-01-04T19:29:04Z</time>
      </trkpt>
      <trkpt lat="44.4214" lon="3.72">
        <ele>1558</ele>
        <time>2020-01-04T19:29:10Z</time>
      </trkpt>
      <trkpt lat="44.42197" lon="3.71957">
        <ele>1556</ele>
        <time>2020-01-04T19:29:25Z</time>
      </trkpt>
      <trkpt lat="44.42272" lon="3.71887">
        <ele>1552</ele>
        <time>2020-01-04T19:29:46Z</time>
      </trkpt>
      <trkpt lat="44.42357" lon="3.71777">
        <ele>1548</ele>
        <time>2020-01-04T19:30:13Z</time>
      </trkpt>
      <trkpt lat="44.42388" lon="3.71731">
        <ele>1547</ele>
        <time>2020-01-04T19:30:23Z</time>
      </trkpt>
      <trkpt lat="44.42444" lon="3.71642">
        <ele>1546</ele>
        <time>2020-01-04T19:30:43Z</time>
      </trkpt>
      <trkpt lat="44.42519" lon="3.71462">
        <ele>1546</ele>
        <time>2020-01-04T19:31:18Z</time>
      </trkpt>
      <trkpt lat="44.42545" lon="3.71384">
        <ele>1544</ele>
        <time>2020-01-04T19:31:32Z</time>
      </trkpt>
      <trkpt lat="44.42555" lon="3.71351">
        <ele>1543</ele>
        <time>2020-01-04T19:31:38Z</time>
      </trkpt>
      <trkpt lat="44.42576" lon="3.71248">
        <ele>1538</ele>
        <time>2020-01-04T19:31:56Z</time>
      </trkpt>
      <trkpt lat="44.42587" lon="3.71215">
        <ele>1540</ele>
        <time>2020-01-04T19:32:02Z</time>
      </trkpt>
      <trkpt lat="44.42589" lon="3.7119">
        <ele>1541</ele>
        <time>2020-01-04T19:32:06Z</time>
      </trkpt>
      <trkpt lat="44.42584" lon="3.71177">
        <ele>1540</ele>
        <time>2020-01-04T19:32:09Z</time>
      </trkpt>
      <trkpt lat="44.42546" lon="3.71135">
        <ele>1538</ele>
        <time>2020-01-04T19:32:20Z</time>
      </trkpt>
      <trkpt lat="44.42529" lon="3.7111">
        <ele>1537</ele>
        <time>2020-01-04T19:32:26Z</time>
      </trkpt>
      <trkpt lat="44.42503" lon="3.71031">
        <ele>1540</ele>
        <time>2020-01-04T19:32:40Z</time>
      </trkpt>
      <trkpt lat="44.42485" lon="3.70993">
        <ele>1540</ele>
        <time>2020-01-04T19:32:48Z</time>
      </trkpt>
      <trkpt lat="44.42468" lon="3.70967">
        <ele>1540</ele>
        <time>2020-01-04T19:32:54Z</time>
      </trkpt>
      <trkpt lat="44.42459" lon="3.70943">
        <ele>1540</ele>
        <time>2020-01-04T19:32:58Z</time>
      </trkpt>
      <trkpt lat="44.42456" lon="3.70928">
        <ele>1541</ele>
        <time>2020-01-04T19:33:01Z</time>
      </trkpt>
      <trkpt lat="44.4245" lon="3.70839">
        <ele>1545</ele>
        <time>2020-01-04T19:33:16Z</time>
      </trkpt>
      <trkpt lat="44.42453" lon="3.70775">
        <ele>1546</ele>
        <time>2020-01-04T19:33:27Z</time>
      </trkpt>
      <trkpt lat="44.42457" lon="3.70741">
        <ele>1548</ele>
        <time>2020-01-04T19:33:32Z</time>
      </trkpt>
      <trkpt lat="44.42464" lon="3.70696">
        <ele>1549</ele>
        <time>2020-01-04T19:33:40Z</time>
      </trkpt>
      <trkpt lat="44.42484" lon="3.706">
        <ele>1552</ele>
        <time>2020-01-04T19:33:57Z</time>
      </trkpt>
      <trkpt lat="44.42502" lon="3.70533">
        <ele>1554</ele>
        <time>2020-01-04T19:34:09Z</time>
      </trkpt>
      <trkpt lat="44.42515" lon="3.70501">
        <ele>1555</ele>
        <time>2020-01-04T19:34:15Z</time>
      </trkpt>
      <trkpt lat="44.42537" lon="3.70467">
        <ele>1558</ele>
        <time>2020-01-04T19:34:22Z</time>
      </trkpt>
      <trkpt lat="44.42588" lon="3.70416">
        <ele>1563</ele>
        <time>2020-01-04T19:34:37Z</time>
      </trkpt>
      <trkpt lat="44.42608" lon="3.70393">
        <ele>1565</ele>
        <time>2020-01-04T19:34:43Z</time>
      </trkpt>
      <trkpt lat="44.42643" lon="3.70345">
        <ele>1566</ele>
        <time>2020-01-04T19:34:55Z</time>
      </trkpt>
      <trkpt lat="44.42673" lon="3.70312">
        <ele>1569</ele>
        <time>2020-01-04T19:35:03Z</time>
      </trkpt>
      <trkpt lat="44.42683" lon="3.70295">
        <ele>1571</ele>
        <time>2020-01-04T19:35:07Z</time>
      </trkpt>
      <trkpt lat="44.42687" lon="3.70278">
        <ele>1571</ele>
        <time>2020-01-04T19:35:10Z</time>
      </trkpt>
      <trkpt lat="44.42679" lon="3.70217">
        <ele>1571</ele>
        <time>2020-01-04T19:35:20Z</time>
      </trkpt>
      <trkpt lat="44.42672" lon="3.70196">
        <ele>1571</ele>
        <time>2020-01-04T19:35:24Z</time>
      </trkpt>
      <trkpt lat="44.42667" lon="3.70189">
        <ele>1570</ele>
        <time>2020-01-04T19:35:26Z</time>
      </trkpt>
      <trkpt lat="44.42616" lon="3.70156">
        <ele>1567</ele>
        <time>2020-01-04T19:35:39Z</time>
      </trkpt>
      <trkpt lat="44.42565" lon="3.70119">
        <ele>1566</ele>
        <time>2020-01-04T19:35:53Z</time>
      </trkpt>
      <trkpt lat="44.42532" lon="3.70091">
        <ele>1567</ele>
        <time>2020-01-04T19:36:02Z</time>
      </trkpt>
      <trkpt lat="44.42486" lon="3.7003">
        <ele>1570</ele>
        <time>2020-01-04T19:36:16Z</time>
      </trkpt>
      <trkpt lat="44.42462" lon="3.70009">
        <ele>1571</ele>
        <time>2020-01-04T19:36:23Z</time>
      </trkpt>
      <trkpt lat="44.42378" lon="3.69951">
        <ele>1572</ele>
        <time>2020-01-04T19:36:45Z</time>
      </trkpt>
      <trkpt lat="44.42372" lon="3.69943">
        <ele>1572</ele>
        <time>2020-01-04T19:36:47Z</time>
      </trkpt>
      <trkpt lat="44.42372" lon="3.69939">
        <ele>1573</ele>
        <time>2020-01-04T19:36:47Z</time>
      </trkpt>
      <trkpt lat="44.42378" lon="3.69934">
        <ele>1573</ele>
        <time>2020-01-04T19:36:49Z</time>
      </trkpt>
      <trkpt lat="44.42402" lon="3.69934">
        <ele>1574</ele>
        <time>2020-01-04T19:36:55Z</time>
      </trkpt>
      <trkpt lat="44.4245" lon="3.69921">
        <ele>1577</ele>
        <time>2020-01-04T19:37:06Z</time>
      </trkpt>
      <trkpt lat="44.42484" lon="3.69906">
        <ele>1578</ele>
        <time>2020-01-04T19:37:14Z</time>
      </trkpt>
      <trkpt lat="44.42561" lon="3.69865">
        <ele>1579</ele>
        <time>2020-01-04T19:37:34Z</time>
      </trkpt>
      <trkpt lat="44.4269" lon="3.69839">
        <ele>1583</ele>
        <time>2020-01-04T19:38:04Z</time>
      </trkpt>
      <trkpt lat="44.42834" lon="3.69712">
        <ele>1586</ele>
        <time>2020-01-04T19:38:44Z</time>
      </trkpt>
      <trkpt lat="44.42985" lon="3.69421">
        <ele>1570</ele>
        <time>2020-01-04T19:39:44Z</time>
      </trkpt>
      <trkpt lat="44.43224" lon="3.69366">
        <ele>1568</ele>
        <time>2020-01-04T19:40:40Z</time>
      </trkpt>
      <trkpt lat="44.43426" lon="3.69226">
        <ele>1561</ele>
        <time>2020-01-04T19:41:33Z</time>
      </trkpt>
      <trkpt lat="44.4352" lon="3.69047">
        <ele>1551</ele>
        <time>2020-01-04T19:42:10Z</time>
      </trkpt>
      <trkpt lat="44.43633" lon="3.68802">
        <ele>1539</ele>
        <time>2020-01-04T19:42:59Z</time>
      </trkpt>
      <trkpt lat="44.43639" lon="3.68611">
        <ele>1541</ele>
        <time>2020-01-04T19:43:31Z</time>
      </trkpt>
      <trkpt lat="44.4367" lon="3.68438">
        <ele>1542</ele>
        <time>2020-01-04T19:44:00Z</time>
      </trkpt>
      <trkpt lat="44.43633" lon="3.68274">
        <ele>1547</ele>
        <time>2020-01-04T19:44:29Z</time>
      </trkpt>
      <trkpt lat="44.4352" lon="3.68101">
        <ele>1552</ele>
        <time>2020-01-04T19:45:08Z</time>
      </trkpt>
      <trkpt lat="44.43645" lon="3.67882">
        <ele>1553</ele>
        <time>2020-01-04T19:45:55Z</time>
      </trkpt>
      <trkpt lat="44.43639" lon="3.67355">
        <ele>1566</ele>
        <time>2020-01-04T19:47:23Z</time>
      </trkpt>
      <trkpt lat="44.43488" lon="3.67209">
        <ele>1560</ele>
        <time>2020-01-04T19:48:06Z</time>
      </trkpt>
      <trkpt lat="44.43432" lon="3.66863">
        <ele>1552</ele>
        <time>2020-01-04T19:49:05Z</time>
      </trkpt>
      <trkpt lat="44.43708" lon="3.66654">
        <ele>1544</ele>
        <time>2020-01-04T19:50:18Z</time>
      </trkpt>
      <trkpt lat="44.43765" lon="3.66481">
        <ele>1539</ele>
        <time>2020-01-04T19:50:50Z</time>
      </trkpt>
      <trkpt lat="44.43771" lon="3.66299">
        <ele>1533</ele>
        <time>2020-01-04T19:51:20Z</time>
      </trkpt>
      <trkpt lat="44.43759" lon="3.66099">
        <ele>1533</ele>
        <time>2020-01-04T19:51:54Z</time>
      </trkpt>
      <trkpt lat="44.43595" lon="3.6598">
        <ele>1530</ele>
        <time>2020-01-04T19:52:37Z</time>
      </trkpt>
      <trkpt lat="44.43513" lon="3.65807">
        <ele>1516</ele>
        <time>2020-01-04T19:53:11Z</time>
      </trkpt>
      <trkpt lat="44.43463" lon="3.65516">
        <ele>1505</ele>
        <time>2020-01-04T19:54:01Z</time>
      </trkpt>
      <trkpt lat="44.43438" lon="3.65234">
        <ele>1482</ele>
        <time>2020-01-04T19:54:49Z</time>
      </trkpt>
      <trkpt lat="44.43463" lon="3.64861">
        <ele>1454</ele>
        <time>2020-01-04T19:55:51Z</time>
      </trkpt>
      <trkpt lat="44.43582" lon="3.64388">
        <ele>1432</ele>
        <time>2020-01-04T19:57:15Z</time>
      </trkpt>
      <trkpt lat="44.43362" lon="3.63947">
        <ele>1367</ele>
        <time>2020-01-04T19:58:44Z</time>
      </trkpt>
      <trkpt lat="44.43476" lon="3.63723">
        <ele>1352</ele>
        <time>2020-01-04T19:59:30Z</time>
      </trkpt>
      <trkpt lat="44.43499" lon="3.63612">
        <ele>1338</ele>
        <time>2020-01-04T19:59:50Z</time>
      </trkpt>
      <trkpt lat="44.43425" lon="3.6342">
        <ele>1320</ele>
        <time>2020-01-04T20:00:26Z</time>
      </trkpt>
      <trkpt lat="44.43332" lon="3.63263">
        <ele>1306</ele>
        <time>2020-01-04T20:01:00Z</time>
      </trkpt>
      <trkpt lat="44.43309" lon="3.63156">
        <ele>1297</ele>
        <time>2020-01-04T20:01:19Z</time>
      </trkpt>
      <trkpt lat="44.43216" lon="3.63006">
        <ele>1286</ele>
        <time>2020-01-04T20:01:52Z</time>
      </trkpt>
      <trkpt lat="44.43187" lon="3.62964">
        <ele>1283</ele>
        <time>2020-01-04T20:02:02Z</time>
      </trkpt>
      <trkpt lat="44.43125" lon="3.62916">
        <ele>1278</ele>
        <time>2020-01-04T20:02:18Z</time>
      </trkpt>
      <trkpt lat="44.43068" lon="3.62889">
        <ele>1273</ele>
        <time>2020-01-04T20:02:32Z</time>
      </trkpt>
      <trkpt lat="44.43022" lon="3.6289">
        <ele>1270</ele>
        <time>2020-01-04T20:02:43Z</time>
      </trkpt>
      <trkpt lat="44.42985" lon="3.629">
        <ele>1269</ele>
        <time>2020-01-04T20:02:52Z</time>
      </trkpt>
      <trkpt lat="44.42931" lon="3.62899">
        <ele>1265</ele>
        <time>2020-01-04T20:03:04Z</time>
      </trkpt>
      <trkpt lat="44.43013" lon="3.62834">
        <ele>1262</ele>
        <time>2020-01-04T20:03:26Z</time>
      </trkpt>
      <trkpt lat="44.43033" lon="3.62787">
        <ele>1259</ele>
        <time>2020-01-04T20:03:35Z</time>
      </trkpt>
      <trkpt lat="44.4304" lon="3.62778">
        <ele>1258</ele>
        <time>2020-01-04T20:03:38Z</time>
      </trkpt>
      <trkpt lat="44.43081" lon="3.62744">
        <ele>1258</ele>
        <time>2020-01-04T20:03:49Z</time>
      </trkpt>
      <trkpt lat="44.43146" lon="3.62736">
        <ele>1261</ele>
        <time>2020-01-04T20:04:04Z</time>
      </trkpt>
      <trkpt lat="44.4311" lon="3.62632">
        <ele>1266</ele>
        <time>2020-01-04T20:04:23Z</time>
      </trkpt>
      <trkpt lat="44.43002" lon="3.62652">
        <ele>1258</ele>
        <time>2020-01-04T20:04:49Z</time>
      </trkpt>
      <trkpt lat="44.42818" lon="3.62645">
        <ele>1249</ele>
        <time>2020-01-04T20:05:32Z</time>
      </trkpt>
      <trkpt lat="44.4276" lon="3.62554">
        <ele>1245</ele>
        <time>2020-01-04T20:05:52Z</time>
      </trkpt>
      <trkpt lat="44.42751" lon="3.62327">
        <ele>1245</ele>
        <time>2020-01-04T20:06:30Z</time>
      </trkpt>
      <trkpt lat="44.42697" lon="3.62301">
        <ele>1240</ele>
        <time>2020-01-04T20:06:43Z</time>
      </trkpt>
      <trkpt lat="44.42692" lon="3.62249">
        <ele>1239</ele>
        <time>2020-01-04T20:06:52Z</time>
      </trkpt>
      <trkpt lat="44.42593" lon="3.62294">
        <ele>1230</ele>
        <time>2020-01-04T20:07:16Z</time>
      </trkpt>
      <trkpt lat="44.42571" lon="3.6219">
        <ele>1226</ele>
        <time>2020-01-04T20:07:34Z</time>
      </trkpt>
      <trkpt lat="44.42598" lon="3.62021">
        <ele>1228</ele>
        <time>2020-01-04T20:08:03Z</time>
      </trkpt>
      <trkpt lat="44.42513" lon="3.61859">
        <ele>1237</ele>
        <time>2020-01-04T20:08:37Z</time>
      </trkpt>
      <trkpt lat="44.42481" lon="3.61781">
        <ele>1233</ele>
        <time>2020-01-04T20:08:52Z</time>
      </trkpt>
      <trkpt lat="44.4254" lon="3.61612">
        <ele>1236</ele>
        <time>2020-01-04T20:09:23Z</time>
      </trkpt>
      <trkpt lat="44.42665" lon="3.61384">
        <ele>1252</ele>
        <time>2020-01-04T20:10:11Z</time>
      </trkpt>
      <trkpt lat="44.42903" lon="3.60884">
        <ele>1258</ele>
        <time>2020-01-04T20:11:51Z</time>
      </trkpt>
      <trkpt lat="44.43009" lon="3.60656">
        <ele>1257</ele>
        <time>2020-01-04T20:12:37Z</time>
      </trkpt>
      <trkpt lat="44.43033" lon="3.60566">
        <ele>1256</ele>
        <time>2020-01-04T20:12:53Z</time>
      </trkpt>
      <trkpt lat="44.43047" lon="3.605">
        <ele>1254</ele>
        <time>2020-01-04T20:13:04Z</time>
      </trkpt>
      <trkpt lat="44.43098" lon="3.6032">
        <ele>1247</ele>
        <time>2020-01-04T20:13:37Z</time>
      </trkpt>
      <trkpt lat="44.43099" lon="3.60282">
        <ele>1244</ele>
        <time>2020-01-04T20:13:43Z</time>
      </trkpt>
      <trkpt lat="44.43102" lon="3.60264">
        <ele>1243</ele>
        <time>2020-01-04T20:13:46Z</time>
      </trkpt>
      <trkpt lat="44.43141" lon="3.60138">
        <ele>1239</ele>
        <time>2020-01-04T20:14:09Z</time>
      </trkpt>
      <trkpt lat="44.43166" lon="3.60096">
        <ele>1239</ele>
        <time>2020-01-04T20:14:18Z</time>
      </trkpt>
      <trkpt lat="44.43176" lon="3.60087">
        <ele>1239</ele>
        <time>2020-01-04T20:14:21Z</time>
      </trkpt>
      <trkpt lat="44.43215" lon="3.60018">
        <ele>1234</ele>
        <time>2020-01-04T20:14:35Z</time>
      </trkpt>
      <trkpt lat="44.43231" lon="3.59994">
        <ele>1233</ele>
        <time>2020-01-04T20:14:41Z</time>
      </trkpt>
      <trkpt lat="44.43248" lon="3.59974">
        <ele>1231</ele>
        <time>2020-01-04T20:14:46Z</time>
      </trkpt>
      <trkpt lat="44.43263" lon="3.5995">
        <ele>1228</ele>
        <time>2020-01-04T20:14:51Z</time>
      </trkpt>
      <trkpt lat="44.43271" lon="3.59942">
        <ele>1227</ele>
        <time>2020-01-04T20:14:54Z</time>
      </trkpt>
      <trkpt lat="44.43301" lon="3.5992">
        <ele>1224</ele>
        <time>2020-01-04T20:15:02Z</time>
      </trkpt>
      <trkpt lat="44.43338" lon="3.59916">
        <ele>1223</ele>
        <time>2020-01-04T20:15:10Z</time>
      </trkpt>
      <trkpt lat="44.43359" lon="3.59917">
        <ele>1221</ele>
        <time>2020-01-04T20:15:15Z</time>
      </trkpt>
      <trkpt lat="44.43394" lon="3.59927">
        <ele>1221</ele>
        <time>2020-01-04T20:15:24Z</time>
      </trkpt>
      <trkpt lat="44.43394" lon="3.59919">
        <ele>1219</ele>
        <time>2020-01-04T20:15:25Z</time>
      </trkpt>
      <trkpt lat="44.43379" lon="3.599">
        <ele>1217</ele>
        <time>2020-01-04T20:15:30Z</time>
      </trkpt>
      <trkpt lat="44.43349" lon="3.59837">
        <ele>1209</ele>
        <time>2020-01-04T20:15:42Z</time>
      </trkpt>
      <trkpt lat="44.43331" lon="3.59811">
        <ele>1206</ele>
        <time>2020-01-04T20:15:48Z</time>
      </trkpt>
      <trkpt lat="44.43333" lon="3.59802">
        <ele>1205</ele>
        <time>2020-01-04T20:15:50Z</time>
      </trkpt>
      <trkpt lat="44.43349" lon="3.59796">
        <ele>1204</ele>
        <time>2020-01-04T20:15:54Z</time>
      </trkpt>
      <trkpt lat="44.43356" lon="3.59784">
        <ele>1203</ele>
        <time>2020-01-04T20:15:56Z</time>
      </trkpt>
      <trkpt lat="44.43377" lon="3.59792">
        <ele>1205</ele>
        <time>2020-01-04T20:16:01Z</time>
      </trkpt>
      <trkpt lat="44.434" lon="3.59793">
        <ele>1205</ele>
        <time>2020-01-04T20:16:07Z</time>
      </trkpt>
      <trkpt lat="44.43416" lon="3.59763">
        <ele>1205</ele>
        <time>2020-01-04T20:16:13Z</time>
      </trkpt>
      <trkpt lat="44.4341" lon="3.59741">
        <ele>1205</ele>
        <time>2020-01-04T20:16:17Z</time>
      </trkpt>
      <trkpt lat="44.43381" lon="3.59704">
        <ele>1206</ele>
        <time>2020-01-04T20:16:26Z</time>
      </trkpt>
      <trkpt lat="44.43372" lon="3.59684">
        <ele>1206</ele>
        <time>2020-01-04T20:16:30Z</time>
      </trkpt>
      <trkpt lat="44.43357" lon="3.5963">
        <ele>1208</ele>
        <time>2020-01-04T20:16:40Z</time>
      </trkpt>
      <trkpt lat="44.43338" lon="3.59575">
        <ele>1209</ele>
        <time>2020-01-04T20:16:50Z</time>
      </trkpt>
      <trkpt lat="44.43334" lon="3.59552">
        <ele>1210</ele>
        <time>2020-01-04T20:16:54Z</time>
      </trkpt>
      <trkpt lat="44.43334" lon="3.59533">
        <ele>1211</ele>
        <time>2020-01-04T20:16:57Z</time>
      </trkpt>
      <trkpt lat="44.43323" lon="3.59534">
        <ele>1210</ele>
        <time>2020-01-04T20:17:00Z</time>
      </trkpt>
      <trkpt lat="44.43314" lon="3.59532">
        <ele>1208</ele>
        <time>2020-01-04T20:17:02Z</time>
      </trkpt>
      <trkpt lat="44.43293" lon="3.59538">
        <ele>1205</ele>
        <time>2020-01-04T20:17:07Z</time>
      </trkpt>
      <trkpt lat="44.43284" lon="3.59537">
        <ele>1204</ele>
        <time>2020-01-04T20:17:09Z</time>
      </trkpt>
      <trkpt lat="44.43261" lon="3.59527">
        <ele>1202</ele>
        <time>2020-01-04T20:17:14Z</time>
      </trkpt>
      <trkpt lat="44.43252" lon="3.59519">
        <ele>1201</ele>
        <time>2020-01-04T20:17:17Z</time>
      </trkpt>
      <trkpt lat="44.43247" lon="3.59508">
        <ele>1202</ele>
        <time>2020-01-04T20:17:19Z</time>
      </trkpt>
      <trkpt lat="44.43235" lon="3.59502">
        <ele>1200</ele>
        <time>2020-01-04T20:17:22Z</time>
      </trkpt>
      <trkpt lat="44.43219" lon="3.59481">
        <ele>1199</ele>
        <time>2020-01-04T20:17:27Z</time>
      </trkpt>
      <trkpt lat="44.43206" lon="3.59443">
        <ele>1198</ele>
        <time>2020-01-04T20:17:34Z</time>
      </trkpt>
      <trkpt lat="44.43189" lon="3.5943">
        <ele>1197</ele>
        <time>2020-01-04T20:17:39Z</time>
      </trkpt>
      <trkpt lat="44.43187" lon="3.59425">
        <ele>1197</ele>
        <time>2020-01-04T20:17:40Z</time>
      </trkpt>
      <trkpt lat="44.43175" lon="3.59341">
        <ele>1191</ele>
        <time>2020-01-04T20:17:54Z</time>
      </trkpt>
      <trkpt lat="44.43148" lon="3.59319">
        <ele>1184</ele>
        <time>2020-01-04T20:18:01Z</time>
      </trkpt>
      <trkpt lat="44.43134" lon="3.59295">
        <ele>1177</ele>
        <time>2020-01-04T20:18:06Z</time>
      </trkpt>
      <trkpt lat="44.43134" lon="3.59268">
        <ele>1174</ele>
        <time>2020-01-04T20:18:11Z</time>
      </trkpt>
      <trkpt lat="44.43151" lon="3.59221">
        <ele>1172</ele>
        <time>2020-01-04T20:18:20Z</time>
      </trkpt>
      <trkpt lat="44.4316" lon="3.59171">
        <ele>1168</ele>
        <time>2020-01-04T20:18:28Z</time>
      </trkpt>
      <trkpt lat="44.43133" lon="3.59105">
        <ele>1153</ele>
        <time>2020-01-04T20:18:41Z</time>
      </trkpt>
      <trkpt lat="44.43125" lon="3.59022">
        <ele>1148</ele>
        <time>2020-01-04T20:18:55Z</time>
      </trkpt>
      <trkpt lat="44.43111" lon="3.58958">
        <ele>1142</ele>
        <time>2020-01-04T20:19:06Z</time>
      </trkpt>
      <trkpt lat="44.43116" lon="3.58902">
        <ele>1141</ele>
        <time>2020-01-04T20:19:16Z</time>
      </trkpt>
      <trkpt lat="44.43114" lon="3.58889">
        <ele>1139</ele>
        <time>2020-01-04T20:19:18Z</time>
      </trkpt>
      <trkpt lat="44.43091" lon="3.58845">
        <ele>1129</ele>
        <time>2020-01-04T20:19:27Z</time>
      </trkpt>
      <trkpt lat="44.43088" lon="3.58821">
        <ele>1126</ele>
        <time>2020-01-04T20:19:31Z</time>
      </trkpt>
      <trkpt lat="44.43068" lon="3.58792">
        <ele>1119</ele>
        <time>2020-01-04T20:19:38Z</time>
      </trkpt>
      <trkpt lat="44.4306" lon="3.58775">
        <ele>1117</ele>
        <time>2020-01-04T20:19:41Z</time>
      </trkpt>
      <trkpt lat="44.43041" lon="3.58708">
        <ele>1112</ele>
        <time>2020-01-04T20:19:53Z</time>
      </trkpt>
      <trkpt lat="44.43022" lon="3.58703">
        <ele>1113</ele>
        <time>2020-01-04T20:19:58Z</time>
      </trkpt>
      <trkpt lat="44.42998" lon="3.58692">
        <ele>1116</ele>
        <time>2020-01-04T20:20:03Z</time>
      </trkpt>
      <trkpt lat="44.42991" lon="3.58729">
        <ele>1117</ele>
        <time>2020-01-04T20:20:10Z</time>
      </trkpt>
      <trkpt lat="44.42988" lon="3.58771">
        <ele>1119</ele>
        <time>2020-01-04T20:20:17Z</time>
      </trkpt>
      <trkpt lat="44.42985" lon="3.58774">
        <ele>1120</ele>
        <time>2020-01-04T20:20:18Z</time>
      </trkpt>
      <trkpt lat="44.42982" lon="3.58764">
        <ele>1121</ele>
        <time>2020-01-04T20:20:20Z</time>
      </trkpt>
      <trkpt lat="44.42983" lon="3.58718">
        <ele>1120</ele>
        <time>2020-01-04T20:20:27Z</time>
      </trkpt>
      <trkpt lat="44.42979" lon="3.58691">
        <ele>1120</ele>
        <time>2020-01-04T20:20:32Z</time>
      </trkpt>
      <trkpt lat="44.42972" lon="3.58676">
        <ele>1122</ele>
        <time>2020-01-04T20:20:35Z</time>
      </trkpt>
      <trkpt lat="44.42964" lon="3.58666">
        <ele>1124</ele>
        <time>2020-01-04T20:20:37Z</time>
      </trkpt>
      <trkpt lat="44.42936" lon="3.58642">
        <ele>1130</ele>
        <time>2020-01-04T20:20:45Z</time>
      </trkpt>
      <trkpt lat="44.4292" lon="3.58634">
        <ele>1132</ele>
        <time>2020-01-04T20:20:49Z</time>
      </trkpt>
      <trkpt lat="44.42886" lon="3.58628">
        <ele>1135</ele>
        <time>2020-01-04T20:20:57Z</time>
      </trkpt>
      <trkpt lat="44.4287" lon="3.58622">
        <ele>1135</ele>
        <time>2020-01-04T20:21:01Z</time>
      </trkpt>
      <trkpt lat="44.42808" lon="3.58591">
        <ele>1136</ele>
        <time>2020-01-04T20:21:16Z</time>
      </trkpt>
      <trkpt lat="44.42792" lon="3.5858">
        <ele>1137</ele>
        <time>2020-01-04T20:21:20Z</time>
      </trkpt>
      <trkpt lat="44.4279" lon="3.58576">
        <ele>1137</ele>
        <time>2020-01-04T20:21:21Z</time>
      </trkpt>
      <trkpt lat="44.42777" lon="3.58587">
        <ele>1138</ele>
        <time>2020-01-04T20:21:25Z</time>
      </trkpt>
      <trkpt lat="44.42767" lon="3.58592">
        <ele>1139</ele>
        <time>2020-01-04T20:21:27Z</time>
      </trkpt>
      <trkpt lat="44.42727" lon="3.58631">
        <ele>1142</ele>
        <time>2020-01-04T20:21:39Z</time>
      </trkpt>
      <trkpt lat="44.4269" lon="3.58663">
        <ele>1144</ele>
        <time>2020-01-04T20:21:49Z</time>
      </trkpt>
      <trkpt lat="44.4267" lon="3.58672">
        <ele>1145</ele>
        <time>2020-01-04T20:21:54Z</time>
      </trkpt>
      <trkpt lat="44.42664" lon="3.58681">
        <ele>1146</ele>
        <time>2020-01-04T20:21:56Z</time>
      </trkpt>
      <trkpt lat="44.42566" lon="3.5872">
        <ele>1149</ele>
        <time>2020-01-04T20:22:20Z</time>
      </trkpt>
      <trkpt lat="44.42528" lon="3.5874">
        <ele>1151</ele>
        <time>2020-01-04T20:22:29Z</time>
      </trkpt>
      <trkpt lat="44.42501" lon="3.58757">
        <ele>1154</ele>
        <time>2020-01-04T20:22:36Z</time>
      </trkpt>
      <trkpt lat="44.42437" lon="3.58814">
        <ele>1157</ele>
        <time>2020-01-04T20:22:54Z</time>
      </trkpt>
      <trkpt lat="44.42419" lon="3.58824">
        <ele>1158</ele>
        <time>2020-01-04T20:22:58Z</time>
      </trkpt>
      <trkpt lat="44.42395" lon="3.58844">
        <ele>1157</ele>
        <time>2020-01-04T20:23:05Z</time>
      </trkpt>
      <trkpt lat="44.42368" lon="3.58862">
        <ele>1155</ele>
        <time>2020-01-04T20:23:12Z</time>
      </trkpt>
      <trkpt lat="44.42335" lon="3.58914">
        <ele>1154</ele>
        <time>2020-01-04T20:23:23Z</time>
      </trkpt>
      <trkpt lat="44.42286" lon="3.59003">
        <ele>1156</ele>
        <time>2020-01-04T20:23:42Z</time>
      </trkpt>
      <trkpt lat="44.42276" lon="3.59023">
        <ele>1157</ele>
        <time>2020-01-04T20:23:46Z</time>
      </trkpt>
      <trkpt lat="44.42261" lon="3.59073">
        <ele>1160</ele>
        <time>2020-01-04T20:23:55Z</time>
      </trkpt>
      <trkpt lat="44.42248" lon="3.59094">
        <ele>1160</ele>
        <time>2020-01-04T20:24:00Z</time>
      </trkpt>
      <trkpt lat="44.42242" lon="3.59098">
        <ele>1161</ele>
        <time>2020-01-04T20:24:01Z</time>
      </trkpt>
      <trkpt lat="44.42211" lon="3.59111">
        <ele>1161</ele>
        <time>2020-01-04T20:24:09Z</time>
      </trkpt>
      <trkpt lat="44.42184" lon="3.59118">
        <ele>1162</ele>
        <time>2020-01-04T20:24:15Z</time>
      </trkpt>
      <trkpt lat="44.42141" lon="3.59122">
        <ele>1162</ele>
        <time>2020-01-04T20:24:25Z</time>
      </trkpt>
      <trkpt lat="44.42101" lon="3.59133">
        <ele>1163</ele>
        <time>2020-01-04T20:24:35Z</time>
      </trkpt>
      <trkpt lat="44.42091" lon="3.59138">
        <ele>1163</ele>
        <time>2020-01-04T20:24:37Z</time>
      </trkpt>
      <trkpt lat="44.42066" lon="3.59167">
        <ele>1164</ele>
        <time>2020-01-04T20:24:45Z</time>
      </trkpt>
      <trkpt lat="44.42057" lon="3.59172">
        <ele>1165</ele>
        <time>2020-01-04T20:24:47Z</time>
      </trkpt>
      <trkpt lat="44.42046" lon="3.59173">
        <ele>1165</ele>
        <time>2020-01-04T20:24:50Z</time>
      </trkpt>
      <trkpt lat="44.42019" lon="3.5917">
        <ele>1166</ele>
        <time>2020-01-04T20:24:56Z</time>
      </trkpt>
      <trkpt lat="44.41963" lon="3.59161">
        <ele>1166</ele>
        <time>2020-01-04T20:25:09Z</time>
      </trkpt>
      <trkpt lat="44.41937" lon="3.59152">
        <ele>1166</ele>
        <time>2020-01-04T20:25:15Z</time>
      </trkpt>
      <trkpt lat="44.41927" lon="3.59151">
        <ele>1166</ele>
        <time>2020-01-04T20:25:18Z</time>
      </trkpt>
      <trkpt lat="44.41973" lon="3.58629">
        <ele>1138</ele>
        <time>2020-01-04T20:26:46Z</time>
      </trkpt>
      <trkpt lat="44.41921" lon="3.5861">
        <ele>1138</ele>
        <time>2020-01-04T20:26:58Z</time>
      </trkpt>
      <trkpt lat="44.41845" lon="3.58566">
        <ele>1134</ele>
        <time>2020-01-04T20:27:17Z</time>
      </trkpt>
      <trkpt lat="44.41814" lon="3.58556">
        <ele>1133</ele>
        <time>2020-01-04T20:27:25Z</time>
      </trkpt>
      <trkpt lat="44.4179" lon="3.5853">
        <ele>1131</ele>
        <time>2020-01-04T20:27:32Z</time>
      </trkpt>
      <trkpt lat="44.41761" lon="3.58515">
        <ele>1131</ele>
        <time>2020-01-04T20:27:39Z</time>
      </trkpt>
      <trkpt lat="44.41704" lon="3.58469">
        <ele>1127</ele>
        <time>2020-01-04T20:27:54Z</time>
      </trkpt>
      <trkpt lat="44.41691" lon="3.58463">
        <ele>1127</ele>
        <time>2020-01-04T20:27:58Z</time>
      </trkpt>
      <trkpt lat="44.41679" lon="3.58441">
        <ele>1126</ele>
        <time>2020-01-04T20:28:02Z</time>
      </trkpt>
      <trkpt lat="44.41672" lon="3.58407">
        <ele>1125</ele>
        <time>2020-01-04T20:28:08Z</time>
      </trkpt>
      <trkpt lat="44.41638" lon="3.58339">
        <ele>1123</ele>
        <time>2020-01-04T20:28:22Z</time>
      </trkpt>
      <trkpt lat="44.41622" lon="3.58325">
        <ele>1124</ele>
        <time>2020-01-04T20:28:26Z</time>
      </trkpt>
      <trkpt lat="44.41597" lon="3.58309">
        <ele>1124</ele>
        <time>2020-01-04T20:28:33Z</time>
      </trkpt>
      <trkpt lat="44.4157" lon="3.58285">
        <ele>1122</ele>
        <time>2020-01-04T20:28:40Z</time>
      </trkpt>
      <trkpt lat="44.41498" lon="3.58238">
        <ele>1120</ele>
        <time>2020-01-04T20:28:59Z</time>
      </trkpt>
      <trkpt lat="44.41472" lon="3.58211">
        <ele>1115</ele>
        <time>2020-01-04T20:29:06Z</time>
      </trkpt>
      <trkpt lat="44.41422" lon="3.5818">
        <ele>1110</ele>
        <time>2020-01-04T20:29:19Z</time>
      </trkpt>
      <trkpt lat="44.41399" lon="3.58163">
        <ele>1108</ele>
        <time>2020-01-04T20:29:25Z</time>
      </trkpt>
      <trkpt lat="44.41374" lon="3.5814">
        <ele>1105</ele>
        <time>2020-01-04T20:29:32Z</time>
      </trkpt>
      <trkpt lat="44.41327" lon="3.58088">
        <ele>1100</ele>
        <time>2020-01-04T20:29:46Z</time>
      </trkpt>
      <trkpt lat="44.41315" lon="3.58074">
        <ele>1098</ele>
        <time>2020-01-04T20:29:50Z</time>
      </trkpt>
      <trkpt lat="44.41297" lon="3.58046">
        <ele>1094</ele>
        <time>2020-01-04T20:29:56Z</time>
      </trkpt>
      <trkpt lat="44.41239" lon="3.57986">
        <ele>1088</ele>
        <time>2020-01-04T20:30:13Z</time>
      </trkpt>
      <trkpt lat="44.41218" lon="3.57968">
        <ele>1085</ele>
        <time>2020-01-04T20:30:19Z</time>
      </trkpt>
      <trkpt lat="44.41178" lon="3.57942">
        <ele>1081</ele>
        <time>2020-01-04T20:30:29Z</time>
      </trkpt>
      <trkpt lat="44.41165" lon="3.57939">
        <ele>1080</ele>
        <time>2020-01-04T20:30:32Z</time>
      </trkpt>
      <trkpt lat="44.4115" lon="3.57941">
        <ele>1079</ele>
        <time>2020-01-04T20:30:36Z</time>
      </trkpt>
      <trkpt lat="44.41134" lon="3.57947">
        <ele>1077</ele>
        <time>2020-01-04T20:30:39Z</time>
      </trkpt>
      <trkpt lat="44.41121" lon="3.57955">
        <ele>1076</ele>
        <time>2020-01-04T20:30:43Z</time>
      </trkpt>
      <trkpt lat="44.41108" lon="3.57969">
        <ele>1076</ele>
        <time>2020-01-04T20:30:47Z</time>
      </trkpt>
      <trkpt lat="44.41096" lon="3.57996">
        <ele>1076</ele>
        <time>2020-01-04T20:30:52Z</time>
      </trkpt>
      <trkpt lat="44.41093" lon="3.57999">
        <ele>1075</ele>
        <time>2020-01-04T20:30:53Z</time>
      </trkpt>
      <trkpt lat="44.41088" lon="3.57993">
        <ele>1074</ele>
        <time>2020-01-04T20:30:54Z</time>
      </trkpt>
      <trkpt lat="44.41073" lon="3.57879">
        <ele>1066</ele>
        <time>2020-01-04T20:31:14Z</time>
      </trkpt>
      <trkpt lat="44.41063" lon="3.57771">
        <ele>1055</ele>
        <time>2020-01-04T20:31:32Z</time>
      </trkpt>
      <trkpt lat="44.41037" lon="3.57707">
        <ele>1049</ele>
        <time>2020-01-04T20:31:44Z</time>
      </trkpt>
      <trkpt lat="44.41001" lon="3.57648">
        <ele>1050</ele>
        <time>2020-01-04T20:31:57Z</time>
      </trkpt>
      <trkpt lat="44.40987" lon="3.57622">
        <ele>1051</ele>
        <time>2020-01-04T20:32:03Z</time>
      </trkpt>
      <trkpt lat="44.40983" lon="3.57607">
        <ele>1052</ele>
        <time>2020-01-04T20:32:05Z</time>
      </trkpt>
      <trkpt lat="44.40988" lon="3.57576">
        <ele>1053</ele>
        <time>2020-01-04T20:32:10Z</time>
      </trkpt>
      <trkpt lat="44.40982" lon="3.57548">
        <ele>1054</ele>
        <time>2020-01-04T20:32:15Z</time>
      </trkpt>
      <trkpt lat="44.40986" lon="3.57529">
        <ele>1054</ele>
        <time>2020-01-04T20:32:19Z</time>
      </trkpt>
      <trkpt lat="44.40979" lon="3.57464">
        <ele>1055</ele>
        <time>2020-01-04T20:32:30Z</time>
      </trkpt>
      <trkpt lat="44.40971" lon="3.57428">
        <ele>1054</ele>
        <time>2020-01-04T20:32:36Z</time>
      </trkpt>
      <trkpt lat="44.40982" lon="3.57406">
        <ele>1052</ele>
        <time>2020-01-04T20:32:40Z</time>
      </trkpt>
      <trkpt lat="44.41026" lon="3.57382">
        <ele>1044</ele>
        <time>2020-01-04T20:32:51Z</time>
      </trkpt>
      <trkpt lat="44.41033" lon="3.57292">
        <ele>1034</ele>
        <time>2020-01-04T20:33:07Z</time>
      </trkpt>
      <trkpt lat="44.41011" lon="3.57216">
        <ele>1026</ele>
        <time>2020-01-04T20:33:20Z</time>
      </trkpt>
      <trkpt lat="44.40991" lon="3.57192">
        <ele>1023</ele>
        <time>2020-01-04T20:33:26Z</time>
      </trkpt>
      <trkpt lat="44.4098" lon="3.57172">
        <ele>1020</ele>
        <time>2020-01-04T20:33:31Z</time>
      </trkpt>
      <trkpt lat="44.40965" lon="3.57153">
        <ele>1017</ele>
        <time>2020-01-04T20:33:35Z</time>
      </trkpt>
      <trkpt lat="44.4095" lon="3.57146">
        <ele>1016</ele>
        <time>2020-01-04T20:33:39Z</time>
      </trkpt>
      <trkpt lat="44.40935" lon="3.57133">
        <ele>1015</ele>
        <time>2020-01-04T20:33:43Z</time>
      </trkpt>
      <trkpt lat="44.40921" lon="3.57114">
        <ele>1012</ele>
        <time>2020-01-04T20:33:48Z</time>
      </trkpt>
      <trkpt lat="44.40909" lon="3.57089">
        <ele>1008</ele>
        <time>2020-01-04T20:33:53Z</time>
      </trkpt>
      <trkpt lat="44.40897" lon="3.5704">
        <ele>1000</ele>
        <time>2020-01-04T20:34:01Z</time>
      </trkpt>
      <trkpt lat="44.40899" lon="3.56967">
        <ele>993</ele>
        <time>2020-01-04T20:34:14Z</time>
      </trkpt>
      <trkpt lat="44.40908" lon="3.56942">
        <ele>992</ele>
        <time>2020-01-04T20:34:18Z</time>
      </trkpt>
      <trkpt lat="44.40921" lon="3.56929">
        <ele>992</ele>
        <time>2020-01-04T20:34:22Z</time>
      </trkpt>
      <trkpt lat="44.40939" lon="3.56933">
        <ele>994</ele>
        <time>2020-01-04T20:34:26Z</time>
      </trkpt>
      <trkpt lat="44.40948" lon="3.56949">
        <ele>995</ele>
        <time>2020-01-04T20:34:30Z</time>
      </trkpt>
      <trkpt lat="44.40978" lon="3.5697">
        <ele>997</ele>
        <time>2020-01-04T20:34:37Z</time>
      </trkpt>
      <trkpt lat="44.41001" lon="3.56994">
        <ele>999</ele>
        <time>2020-01-04T20:34:44Z</time>
      </trkpt>
      <trkpt lat="44.41024" lon="3.56994">
        <ele>998</ele>
        <time>2020-01-04T20:34:49Z</time>
      </trkpt>
      <trkpt lat="44.41023" lon="3.56971">
        <ele>997</ele>
        <time>2020-01-04T20:34:53Z</time>
      </trkpt>
      <trkpt lat="44.41033" lon="3.5693">
        <ele>995</ele>
        <time>2020-01-04T20:35:01Z</time>
      </trkpt>
      <trkpt lat="44.41033" lon="3.5692">
        <ele>995</ele>
        <time>2020-01-04T20:35:02Z</time>
      </trkpt>
      <trkpt lat="44.41017" lon="3.56877">
        <ele>991</ele>
        <time>2020-01-04T20:35:10Z</time>
      </trkpt>
      <trkpt lat="44.40997" lon="3.5685">
        <ele>986</ele>
        <time>2020-01-04T20:35:17Z</time>
      </trkpt>
      <trkpt lat="44.40969" lon="3.56837">
        <ele>984</ele>
        <time>2020-01-04T20:35:24Z</time>
      </trkpt>
      <trkpt lat="44.4095" lon="3.56835">
        <ele>983</ele>
        <time>2020-01-04T20:35:28Z</time>
      </trkpt>
      <trkpt lat="44.40922" lon="3.56819">
        <ele>979</ele>
        <time>2020-01-04T20:35:35Z</time>
      </trkpt>
      <trkpt lat="44.40881" lon="3.56823">
        <ele>977</ele>
        <time>2020-01-04T20:35:45Z</time>
      </trkpt>
      <trkpt lat="44.40846" lon="3.56811">
        <ele>970</ele>
        <time>2020-01-04T20:35:53Z</time>
      </trkpt>
      <trkpt lat="44.40832" lon="3.56811">
        <ele>969</ele>
        <time>2020-01-04T20:35:56Z</time>
      </trkpt>
      <trkpt lat="44.40827" lon="3.56813">
        <ele>969</ele>
        <time>2020-01-04T20:35:58Z</time>
      </trkpt>
      <trkpt lat="44.40816" lon="3.56826">
        <ele>970</ele>
        <time>2020-01-04T20:36:01Z</time>
      </trkpt>
      <trkpt lat="44.40799" lon="3.5684">
        <ele>968</ele>
        <time>2020-01-04T20:36:06Z</time>
      </trkpt>
      <trkpt lat="44.40787" lon="3.5692">
        <ele>968</ele>
        <time>2020-01-04T20:36:19Z</time>
      </trkpt>
      <trkpt lat="44.40777" lon="3.56946">
        <ele>968</ele>
        <time>2020-01-04T20:36:24Z</time>
      </trkpt>
      <trkpt lat="44.4077" lon="3.56955">
        <ele>967</ele>
        <time>2020-01-04T20:36:26Z</time>
      </trkpt>
      <trkpt lat="44.40766" lon="3.56953">
        <ele>966</ele>
        <time>2020-01-04T20:36:27Z</time>
      </trkpt>
      <trkpt lat="44.4076" lon="3.56908">
        <ele>960</ele>
        <time>2020-01-04T20:36:35Z</time>
      </trkpt>
      <trkpt lat="44.40748" lon="3.56882">
        <ele>957</ele>
        <time>2020-01-04T20:36:40Z</time>
      </trkpt>
      <trkpt lat="44.40738" lon="3.56872">
        <ele>954</ele>
        <time>2020-01-04T20:36:43Z</time>
      </trkpt>
      <trkpt lat="44.40736" lon="3.56874">
        <ele>953</ele>
        <time>2020-01-04T20:36:44Z</time>
      </trkpt>
      <trkpt lat="44.40736" lon="3.56896">
        <ele>954</ele>
        <time>2020-01-04T20:36:47Z</time>
      </trkpt>
      <trkpt lat="44.40732" lon="3.56903">
        <ele>953</ele>
        <time>2020-01-04T20:36:49Z</time>
      </trkpt>
      <trkpt lat="44.40712" lon="3.56925">
        <ele>950</ele>
        <time>2020-01-04T20:36:55Z</time>
      </trkpt>
      <trkpt lat="44.40701" lon="3.56931">
        <ele>949</ele>
        <time>2020-01-04T20:36:58Z</time>
      </trkpt>
      <trkpt lat="44.40693" lon="3.5693">
        <ele>947</ele>
        <time>2020-01-04T20:36:59Z</time>
      </trkpt>
      <trkpt lat="44.40686" lon="3.56922">
        <ele>944</ele>
        <time>2020-01-04T20:37:02Z</time>
      </trkpt>
      <trkpt lat="44.40672" lon="3.56915">
        <ele>939</ele>
        <time>2020-01-04T20:37:05Z</time>
      </trkpt>
      <trkpt lat="44.4063" lon="3.56908">
        <ele>935</ele>
        <time>2020-01-04T20:37:15Z</time>
      </trkpt>
      <trkpt lat="44.40628" lon="3.56903">
        <ele>934</ele>
        <time>2020-01-04T20:37:16Z</time>
      </trkpt>
      <trkpt lat="44.40631" lon="3.56899">
        <ele>933</ele>
        <time>2020-01-04T20:37:17Z</time>
      </trkpt>
      <trkpt lat="44.40637" lon="3.56895">
        <ele>933</ele>
        <time>2020-01-04T20:37:18Z</time>
      </trkpt>
      <trkpt lat="44.40647" lon="3.56881">
        <ele>931</ele>
        <time>2020-01-04T20:37:22Z</time>
      </trkpt>
      <trkpt lat="44.40664" lon="3.56869">
        <ele>932</ele>
        <time>2020-01-04T20:37:26Z</time>
      </trkpt>
      <trkpt lat="44.40668" lon="3.56859">
        <ele>932</ele>
        <time>2020-01-04T20:37:28Z</time>
      </trkpt>
      <trkpt lat="44.40666" lon="3.56844">
        <ele>929</ele>
        <time>2020-01-04T20:37:31Z</time>
      </trkpt>
      <trkpt lat="44.40662" lon="3.56836">
        <ele>927</ele>
        <time>2020-01-04T20:37:32Z</time>
      </trkpt>
      <trkpt lat="44.40661" lon="3.56819">
        <ele>926</ele>
        <time>2020-01-04T20:37:35Z</time>
      </trkpt>
      <trkpt lat="44.40634" lon="3.56758">
        <ele>912</ele>
        <time>2020-01-04T20:37:47Z</time>
      </trkpt>
      <trkpt lat="44.4063" lon="3.56763">
        <ele>910</ele>
        <time>2020-01-04T20:37:48Z</time>
      </trkpt>
      <trkpt lat="44.40623" lon="3.56787">
        <ele>910</ele>
        <time>2020-01-04T20:37:53Z</time>
      </trkpt>
      <trkpt lat="44.4062" lon="3.56813">
        <ele>913</ele>
        <time>2020-01-04T20:37:57Z</time>
      </trkpt>
      <trkpt lat="44.40611" lon="3.56819">
        <ele>911</ele>
        <time>2020-01-04T20:37:59Z</time>
      </trkpt>
      <trkpt lat="44.4059" lon="3.56811">
        <ele>903</ele>
        <time>2020-01-04T20:38:04Z</time>
      </trkpt>
      <trkpt lat="44.4058" lon="3.56812">
        <ele>901</ele>
        <time>2020-01-04T20:38:07Z</time>
      </trkpt>
      <trkpt lat="44.40559" lon="3.56805">
        <ele>899</ele>
        <time>2020-01-04T20:38:12Z</time>
      </trkpt>
      <trkpt lat="44.405" lon="3.56766">
        <ele>881</ele>
        <time>2020-01-04T20:38:27Z</time>
      </trkpt>
      <trkpt lat="44.40497" lon="3.56762">
        <ele>879</ele>
        <time>2020-01-04T20:38:28Z</time>
      </trkpt>
      <trkpt lat="44.405" lon="3.56758">
        <ele>877</ele>
        <time>2020-01-04T20:38:29Z</time>
      </trkpt>
      <trkpt lat="44.40544" lon="3.56755">
        <ele>882</ele>
        <time>2020-01-04T20:38:39Z</time>
      </trkpt>
      <trkpt lat="44.40553" lon="3.56752">
        <ele>883</ele>
        <time>2020-01-04T20:38:41Z</time>
      </trkpt>
      <trkpt lat="44.40556" lon="3.56746">
        <ele>882</ele>
        <time>2020-01-04T20:38:43Z</time>
      </trkpt>
      <trkpt lat="44.40555" lon="3.56739">
        <ele>880</ele>
        <time>2020-01-04T20:38:44Z</time>
      </trkpt>
      <trkpt lat="44.40528" lon="3.56738">
        <ele>875</ele>
        <time>2020-01-04T20:38:50Z</time>
      </trkpt>
    </trkseg>
  </trk>
</gpx>